Location: Buch am Rannenberg
(48.6989°N, 10.6399°E)
Time: 20:48:39
(UTC+00:00)

Resurs 1-4 Rocket - Pass Details

Date: 07 June 2020
Orbit: 800 x 813 km, 98.6° (Epoch: 09 July)

Event Time Altitude Azimuth Distance (km) Brightness Sun altitude
Rises 01:33:02 0° 11° (N) 3,338 6.7 -12.3°
Reaches altitude 10° 01:35:24 10° 7° (N) 2,405 5.7 -12.1°
Maximum altitude 01:40:36 56° 291° (WNW) 959 2.4 -11.6°
Enters shadow 01:44:54 15° 216° (SW) 2,066 3.5 -11.2°
